owner,sensor,date,latitude,longitude,air_pressure(mBar),qcFlag 
TABS,ioos:station:wmo:42046:1,2009-03-01T00:00:00Z,27.8903,-94.0367,1020.45,11111222 
TABS,ioos:station:wmo:42046:1,2009-03-01T00:30:00Z,27.8903,-94.0367,1020.88,11111222 
TABS,ioos:station:wmo:42046:1,2009-03-01T01:00:00Z,27.8903,-94.0367,1021.43,11111222 
TABS,ioos:station:wmo:42046:1,2009-03-01T01:30:00Z,27.8903,-94.0367,1021.99,11111222 
TABS,ioos:station:wmo:42046:1,2009-03-01T02:00:00Z,27.8903,-94.0367,1022.45,11111222 
TABS,ioos:station:wmo:42046:1,2009-03-01T02:30:00Z,27.8903,-94.0367,1022.38,11111222 
TABS,ioos:station:wmo:42046:1,2009-03-01T03:00:00Z,27.8903,-94.0367,1023.23,11111222 
TABS,ioos:station:wmo:42046:1,2009-03-01T03:30:00Z,27.8903,-94.0367,1023.65,11111222 
TABS,ioos:station:wmo:42046:1,2009-03-01T04:00:00Z,27.8903,-94.0367,1024.13,11111222 
TABS,ioos:station:wmo:42046:1,2009-03-01T04:30:00Z,27.8903,-94.0367,1024.49,11111222 
TABS,ioos:station:wmo:42046:1,2009-03-01T05:00:00Z,27.8903,-94.0367,1024.74,11111222 
TABS,ioos:station:wmo:42046:1,2009-03-01T05:30:00Z,27.8903,-94.0367,1024.94,11111222 
TABS,ioos:station:wmo:42046:1,2009-03-01T06:00:00Z,27.8903,-94.0367,1025.62,11111222 
TABS,ioos:station:wmo:42046:1,2009-03-01T06:30:00Z,27.8903,-94.0367,1025.59,11111222 
TABS,ioos:station:wmo:42046:1,2009-03-01T07:00:00Z,27.8903,-94.0367,1025.32,11111222 
TABS,ioos:station:wmo:42046:1,2009-03-01T07:30:00Z,27.8903,-94.0367,1025.84,11111222 
TABS,ioos:station:wmo:42046:1,2009-03-01T08:00:00Z,27.8903,-94.0367,1025.93,11111222 
TABS,ioos:station:wmo:42046:1,2009-03-01T08:30:00Z,27.8903,-94.0367,1026.13,11111222 
TABS,ioos:station:wmo:42046:1,2009-03-01T09:00:00Z,27.8903,-94.0367,1025.9,11111222 
TABS,ioos:station:wmo:42046:1,2009-03-01T09:30:00Z,27.8903,-94.0367,1026.25,11111222 
TABS,ioos:station:wmo:42046:1,2009-03-01T10:00:00Z,27.8903,-94.0367,1026.48,11111222 
TABS,ioos:station:wmo:42046:1,2009-03-01T10:30:00Z,27.8903,-94.0367,1026.74,11111222 
TABS,ioos:station:wmo:42046:1,2009-03-01T11:00:00Z,27.8903,-94.0367,1026.93,11111222 
TABS,ioos:station:wmo:42046:1,2009-03-01T11:30:00Z,27.8903,-94.0367,1027.66,11111222 
TABS,ioos:station:wmo:42046:1,2009-03-01T12:00:00Z,27.8903,-94.0367,1028.26,11111222 
TABS,ioos:station:wmo:42046:1,2009-03-01T12:30:00Z,27.8903,-94.0367,1028.41,11111222 
TABS,ioos:station:wmo:42046:1,2009-03-01T13:00:00Z,27.8903,-94.0367,1028.82,11111222 
TABS,ioos:station:wmo:42046:1,2009-03-01T13:30:00Z,27.8903,-94.0367,1029.43,11111222 
TABS,ioos:station:wmo:42046:1,2009-03-01T14:00:00Z,27.8903,-94.0367,1029.49,11111222 
TABS,ioos:station:wmo:42046:1,2009-03-01T14:30:00Z,27.8903,-94.0367,1030.05,11111222 
TABS,ioos:station:wmo:42046:1,2009-03-01T15:00:00Z,27.8903,-94.0367,1030.16,11111222 
TABS,ioos:station:wmo:42046:1,2009-03-01T15:30:00Z,27.8903,-94.0367,1030.24,11111222 
TABS,ioos:station:wmo:42046:1,2009-03-01T16:00:00Z,27.8903,-94.0367,1030.88,11111222 
TABS,ioos:station:wmo:42046:1,2009-03-01T16:30:00Z,27.8903,-94.0367,1030.89,11111222 
TABS,ioos:station:wmo:42046:1,2009-03-01T17:00:00Z,27.8903,-94.0367,1031.03,11111222 
TABS,ioos:station:wmo:42046:1,2009-03-01T17:30:00Z,27.8903,-94.0367,1030.78,11111222 
TABS,ioos:station:wmo:42046:1,2009-03-01T18:00:00Z,27.8903,-94.0367,1030.39,11111222 
TABS,ioos:station:wmo:42046:1,2009-03-01T18:30:00Z,27.8903,-94.0367,1030.01,11111222 
TABS,ioos:station:wmo:42046:1,2009-03-01T19:00:00Z,27.8903,-94.0367,1029.5,11111222 
TABS,ioos:station:wmo:42046:1,2009-03-01T19:30:00Z,27.8903,-94.0367,1029.39,11111222 
TABS,ioos:station:wmo:42046:1,2009-03-01T20:00:00Z,27.8903,-94.0367,1028.8,11111222 
TABS,ioos:station:wmo:42046:1,2009-03-01T20:30:00Z,27.8903,-94.0367,1028.67,11111222 
TABS,ioos:station:wmo:42046:1,2009-03-01T21:00:00Z,27.8903,-94.0367,1028.26,11111222 
TABS,ioos:station:wmo:42046:1,2009-03-01T21:30:00Z,27.8903,-94.0367,1028.15,11111222 
TABS,ioos:station:wmo:42046:1,2009-03-01T22:00:00Z,27.8903,-94.0367,1027.96,11111222 
TABS,ioos:station:wmo:42046:1,2009-03-01T22:30:00Z,27.8903,-94.0367,1027.69,11111222 
TABS,ioos:station:wmo:42046:1,2009-03-01T23:00:00Z,27.8903,-94.0367,1027.87,11111222 
TABS,ioos:station:wmo:42046:1,2009-03-01T23:30:00Z,27.8903,-94.0367,1027.59,11111222 
TABS,ioos:station:wmo:42046:1,2009-03-02T00:00:00Z,27.8903,-94.0367,1027.62,11111222 
TABS,ioos:station:wmo:42046:1,2009-03-02T00:30:00Z,27.8903,-94.0367,1027.67,11111222 
TABS,ioos:station:wmo:42046:1,2009-03-02T01:00:00Z,27.8903,-94.0367,1027.72,11111222 
TABS,ioos:station:wmo:42046:1,2009-03-02T01:30:00Z,27.8903,-94.0367,1027.92,11111222 
TABS,ioos:station:wmo:42046:1,2009-03-02T02:00:00Z,27.8903,-94.0367,1027.96,11111222 
TABS,ioos:station:wmo:42046:1,2009-03-02T02:30:00Z,27.8903,-94.0367,1028.36,11111222 
TABS,ioos:station:wmo:42046:1,2009-03-02T03:00:00Z,27.8903,-94.0367,1028.29,11111222 
TABS,ioos:station:wmo:42046:1,2009-03-02T03:30:00Z,27.8903,-94.0367,1028.27,11111222 
TABS,ioos:station:wmo:42046:1,2009-03-02T04:00:00Z,27.8903,-94.0367,1028.51,11111222 
TABS,ioos:station:wmo:42046:1,2009-03-02T04:30:00Z,27.8903,-94.0367,1028.32,11111222 
TABS,ioos:station:wmo:42046:1,2009-03-02T05:00:00Z,27.8903,-94.0367,1028.35,11111222 
TABS,ioos:station:wmo:42046:1,2009-03-02T05:30:00Z,27.8903,-94.0367,1028.12,11111222 
TABS,ioos:station:wmo:42046:1,2009-03-02T06:00:00Z,27.8903,-94.0367,1027.95,11111222 
TABS,ioos:station:wmo:42046:1,2009-03-02T06:30:00Z,27.8903,-94.0367,1027.84,11111222 
TABS,ioos:station:wmo:42046:1,2009-03-02T07:00:00Z,27.8903,-94.0367,1028.02,11111222 
TABS,ioos:station:wmo:42046:1,2009-03-02T07:30:00Z,27.8903,-94.0367,1027.81,11111222 
TABS,ioos:station:wmo:42046:1,2009-03-02T08:00:00Z,27.8903,-94.0367,1027.37,11111222 
TABS,ioos:station:wmo:42046:1,2009-03-02T08:30:00Z,27.8903,-94.0367,1027.08,11111222 
TABS,ioos:station:wmo:42046:1,2009-03-02T09:00:00Z,27.8903,-94.0367,1027.06,11111222 
TABS,ioos:station:wmo:42046:1,2009-03-02T09:30:00Z,27.8903,-94.0367,1026.94,11111222 
TABS,ioos:station:wmo:42046:1,2009-03-02T10:00:00Z,27.8903,-94.0367,1027.01,11111222 
TABS,ioos:station:wmo:42046:1,2009-03-02T10:30:00Z,27.8903,-94.0367,1026.76,11111222 
TABS,ioos:station:wmo:42046:1,2009-03-02T11:00:00Z,27.8903,-94.0367,1026.7,11111222 
TABS,ioos:station:wmo:42046:1,2009-03-02T11:30:00Z,27.8903,-94.0367,1026.86,11111222 
TABS,ioos:station:wmo:42046:1,2009-03-02T12:00:00Z,27.8903,-94.0367,1026.72,11111222 
TABS,ioos:station:wmo:42046:1,2009-03-02T12:30:00Z,27.8903,-94.0367,1027.11,11111222 
TABS,ioos:station:wmo:42046:1,2009-03-02T13:00:00Z,27.8903,-94.0367,1027.06,11111222 
TABS,ioos:station:wmo:42046:1,2009-03-02T13:30:00Z,27.8903,-94.0367,1027.27,11111222 
TABS,ioos:station:wmo:42046:1,2009-03-02T14:00:00Z,27.8903,-94.0367,1027.45,11111222 
TABS,ioos:station:wmo:42046:1,2009-03-02T14:30:00Z,27.8903,-94.0367,1027.69,11111222 
TABS,ioos:station:wmo:42046:1,2009-03-02T15:00:00Z,27.8903,-94.0367,1027.73,11111222 
TABS,ioos:station:wmo:42046:1,2009-03-02T15:30:00Z,27.8903,-94.0367,1027.96,11111222 
TABS,ioos:station:wmo:42046:1,2009-03-02T16:00:00Z,27.8903,-94.0367,1028.22,11111222 
TABS,ioos:station:wmo:42046:1,2009-03-02T16:30:00Z,27.8903,-94.0367,1028.22,11111222 
TABS,ioos:station:wmo:42046:1,2009-03-02T17:00:00Z,27.8903,-94.0367,1028.05,11111222 
TABS,ioos:station:wmo:42046:1,2009-03-02T17:30:00Z,27.8903,-94.0367,1027.75,11111222 
TABS,ioos:station:wmo:42046:1,2009-03-02T18:00:00Z,27.8903,-94.0367,1027.39,11111222 
TABS,ioos:station:wmo:42046:1,2009-03-02T18:30:00Z,27.8903,-94.0367,1026.98,11111222 
TABS,ioos:station:wmo:42046:1,2009-03-02T19:00:00Z,27.8903,-94.0367,1026.49,11111222 
TABS,ioos:station:wmo:42046:1,2009-03-02T19:30:00Z,27.8903,-94.0367,1025.96,11111222 
TABS,ioos:station:wmo:42046:1,2009-03-02T20:00:00Z,27.8903,-94.0367,1025.55,11111222 
TABS,ioos:station:wmo:42046:1,2009-03-02T20:30:00Z,27.8903,-94.0367,1025.26,11111222 
TABS,ioos:station:wmo:42046:1,2009-03-02T21:00:00Z,27.8903,-94.0367,1025.05,11111222 
TABS,ioos:station:wmo:42046:1,2009-03-02T21:30:00Z,27.8903,-94.0367,1024.9,11111222 
TABS,ioos:station:wmo:42046:1,2009-03-02T22:00:00Z,27.8903,-94.0367,1024.91,11111222 
TABS,ioos:station:wmo:42046:1,2009-03-02T22:30:00Z,27.8903,-94.0367,1024.82,11111222 
TABS,ioos:station:wmo:42046:1,2009-03-02T23:00:00Z,27.8903,-94.0367,1024.73,11111222 
TABS,ioos:station:wmo:42046:1,2009-03-02T23:30:00Z,27.8903,-94.0367,1024.64,11111222 
TABS,ioos:station:wmo:42046:1,2009-03-03T00:00:00Z,27.8903,-94.0367,1024.55,11111222 
TABS,ioos:station:wmo:42046:1,2009-03-03T00:30:00Z,27.8903,-94.0367,1024.55,11111222 
TABS,ioos:station:wmo:42046:1,2009-03-03T01:00:00Z,27.8903,-94.0367,1024.93,11111222 
TABS,ioos:station:wmo:42046:1,2009-03-03T01:30:00Z,27.8903,-94.0367,1025.0,11111222 
TABS,ioos:station:wmo:42046:1,2009-03-03T02:00:00Z,27.8903,-94.0367,1025.16,11111222 
TABS,ioos:station:wmo:42046:1,2009-03-03T02:30:00Z,27.8903,-94.0367,1025.44,11111222 
TABS,ioos:station:wmo:42046:1,2009-03-03T03:00:00Z,27.8903,-94.0367,1025.41,11111222 
TABS,ioos:station:wmo:42046:1,2009-03-03T03:30:00Z,27.8903,-94.0367,1025.33,11111222 
TABS,ioos:station:wmo:42046:1,2009-03-03T04:00:00Z,27.8903,-94.0367,1025.37,11111222 
TABS,ioos:station:wmo:42046:1,2009-03-03T04:30:00Z,27.8903,-94.0367,1025.2,11111222 
TABS,ioos:station:wmo:42046:1,2009-03-03T05:00:00Z,27.8903,-94.0367,1025.19,11111222 
TABS,ioos:station:wmo:42046:1,2009-03-03T05:30:00Z,27.8903,-94.0367,1024.84,11111222 
TABS,ioos:station:wmo:42046:1,2009-03-03T06:00:00Z,27.8903,-94.0367,1024.78,11111222 
TABS,ioos:station:wmo:42046:1,2009-03-03T06:30:00Z,27.8903,-94.0367,1024.75,11111222 
TABS,ioos:station:wmo:42046:1,2009-03-03T07:00:00Z,27.8903,-94.0367,1024.71,11111222 
TABS,ioos:station:wmo:42046:1,2009-03-03T07:30:00Z,27.8903,-94.0367,1024.59,11111222 
TABS,ioos:station:wmo:42046:1,2009-03-03T08:00:00Z,27.8903,-94.0367,1024.31,11111222 
TABS,ioos:station:wmo:42046:1,2009-03-03T08:30:00Z,27.8903,-94.0367,1024.13,11111222 
TABS,ioos:station:wmo:42046:1,2009-03-03T09:00:00Z,27.8903,-94.0367,1023.95,11111222 
TABS,ioos:station:wmo:42046:1,2009-03-03T09:30:00Z,27.8903,-94.0367,1023.9,11111222 
TABS,ioos:station:wmo:42046:1,2009-03-03T10:00:00Z,27.8903,-94.0367,1023.9,11111222 
TABS,ioos:station:wmo:42046:1,2009-03-03T10:30:00Z,27.8903,-94.0367,1023.98,11111222 
TABS,ioos:station:wmo:42046:1,2009-03-03T11:00:00Z,27.8903,-94.0367,1024.35,11111222 
TABS,ioos:station:wmo:42046:1,2009-03-03T11:30:00Z,27.8903,-94.0367,1024.56,11111222 
TABS,ioos:station:wmo:42046:1,2009-03-03T12:00:00Z,27.8903,-94.0367,1024.77,11111222 
TABS,ioos:station:wmo:42046:1,2009-03-03T12:30:00Z,27.8903,-94.0367,1024.79,11111222 
TABS,ioos:station:wmo:42046:1,2009-03-03T13:00:00Z,27.8903,-94.0367,1025.09,11111222 
TABS,ioos:station:wmo:42046:1,2009-03-03T13:30:00Z,27.8903,-94.0367,1025.43,11111222 
TABS,ioos:station:wmo:42046:1,2009-03-03T14:00:00Z,27.8903,-94.0367,1025.57,11111222 
TABS,ioos:station:wmo:42046:1,2009-03-03T14:30:00Z,27.8903,-94.0367,1025.9,11111222 
TABS,ioos:station:wmo:42046:1,2009-03-03T15:00:00Z,27.8903,-94.0367,1025.94,11111222 
TABS,ioos:station:wmo:42046:1,2009-03-03T15:30:00Z,27.8903,-94.0367,1026.2,11111222 
TABS,ioos:station:wmo:42046:1,2009-03-03T16:00:00Z,27.8903,-94.0367,1026.45,11111222 
TABS,ioos:station:wmo:42046:1,2009-03-03T16:30:00Z,27.8903,-94.0367,1026.59,11111222 
TABS,ioos:station:wmo:42046:1,2009-03-03T17:00:00Z,27.8903,-94.0367,1026.52,11111222 
TABS,ioos:station:wmo:42046:1,2009-03-03T17:30:00Z,27.8903,-94.0367,1026.29,11111222 
TABS,ioos:station:wmo:42046:1,2009-03-03T18:00:00Z,27.8903,-94.0367,1025.88,11111222 
TABS,ioos:station:wmo:42046:1,2009-03-03T18:30:00Z,27.8903,-94.0367,1025.38,11111222 
TABS,ioos:station:wmo:42046:1,2009-03-03T19:00:00Z,27.8903,-94.0367,1024.89,11111222 
TABS,ioos:station:wmo:42046:1,2009-03-03T19:30:00Z,27.8903,-94.0367,1024.75,11111222 
TABS,ioos:station:wmo:42046:1,2009-03-03T20:00:00Z,27.8903,-94.0367,1024.44,11111222 
TABS,ioos:station:wmo:42046:1,2009-03-03T20:30:00Z,27.8903,-94.0367,1024.18,11111222 
TABS,ioos:station:wmo:42046:1,2009-03-03T21:00:00Z,27.8903,-94.0367,1024.05,11111222 
TABS,ioos:station:wmo:42046:1,2009-03-03T21:30:00Z,27.8903,-94.0367,1024.05,11111222 
TABS,ioos:station:wmo:42046:1,2009-03-03T22:00:00Z,27.8903,-94.0367,1024.01,11111222 
TABS,ioos:station:wmo:42046:1,2009-03-03T22:30:00Z,27.8903,-94.0367,1023.8,11111222 
TABS,ioos:station:wmo:42046:1,2009-03-03T23:00:00Z,27.8903,-94.0367,1023.79,11111222 
TABS,ioos:station:wmo:42046:1,2009-03-03T23:30:00Z,27.8903,-94.0367,1023.78,11111222 
TABS,ioos:station:wmo:42046:1,2009-03-04T00:00:00Z,27.8903,-94.0367,1023.76,11111222 
TABS,ioos:station:wmo:42046:1,2009-03-04T00:30:00Z,27.8903,-94.0367,1023.68,11111222 
TABS,ioos:station:wmo:42046:1,2009-03-04T01:00:00Z,27.8903,-94.0367,1023.73,11111222 
TABS,ioos:station:wmo:42046:1,2009-03-04T01:30:00Z,27.8903,-94.0367,1023.7,11111222 
TABS,ioos:station:wmo:42046:1,2009-03-04T02:00:00Z,27.8903,-94.0367,1023.72,11111222 
TABS,ioos:station:wmo:42046:1,2009-03-04T02:30:00Z,27.8903,-94.0367,1023.91,11111222 
TABS,ioos:station:wmo:42046:1,2009-03-04T03:00:00Z,27.8903,-94.0367,1024.06,11111222 
TABS,ioos:station:wmo:42046:1,2009-03-04T03:30:00Z,27.8903,-94.0367,1023.98,11111222 
TABS,ioos:station:wmo:42046:1,2009-03-04T04:00:00Z,27.8903,-94.0367,1023.98,11111222 
TABS,ioos:station:wmo:42046:1,2009-03-04T04:30:00Z,27.8903,-94.0367,1024.05,11111222 
TABS,ioos:station:wmo:42046:1,2009-03-04T05:00:00Z,27.8903,-94.0367,1023.95,11111222 
TABS,ioos:station:wmo:42046:1,2009-03-04T05:30:00Z,27.8903,-94.0367,1023.6,11111222 
TABS,ioos:station:wmo:42046:1,2009-03-04T06:00:00Z,27.8903,-94.0367,1023.46,11111222 
TABS,ioos:station:wmo:42046:1,2009-03-04T06:30:00Z,27.8903,-94.0367,1023.38,11111222 
TABS,ioos:station:wmo:42046:1,2009-03-04T07:00:00Z,27.8903,-94.0367,1023.08,11111222 
TABS,ioos:station:wmo:42046:1,2009-03-04T07:30:00Z,27.8903,-94.0367,1022.88,11111222 
TABS,ioos:station:wmo:42046:1,2009-03-04T08:00:00Z,27.8903,-94.0367,1022.56,11111222 
TABS,ioos:station:wmo:42046:1,2009-03-04T08:30:00Z,27.8903,-94.0367,1022.13,11111222 
TABS,ioos:station:wmo:42046:1,2009-03-04T09:00:00Z,27.8903,-94.0367,1021.83,11111222 
TABS,ioos:station:wmo:42046:1,2009-03-04T09:30:00Z,27.8903,-94.0367,1021.7,11111222 
TABS,ioos:station:wmo:42046:1,2009-03-04T10:00:00Z,27.8903,-94.0367,1021.84,11111222 
TABS,ioos:station:wmo:42046:1,2009-03-04T10:30:00Z,27.8903,-94.0367,1021.81,11111222 
TABS,ioos:station:wmo:42046:1,2009-03-04T11:00:00Z,27.8903,-94.0367,1021.83,11111222 
TABS,ioos:station:wmo:42046:1,2009-03-04T11:30:00Z,27.8903,-94.0367,1022.13,11111222 
TABS,ioos:station:wmo:42046:1,2009-03-04T12:00:00Z,27.8903,-94.0367,1022.41,11111222 
TABS,ioos:station:wmo:42046:1,2009-03-04T12:30:00Z,27.8903,-94.0367,1022.77,11111222 
TABS,ioos:station:wmo:42046:1,2009-03-04T13:00:00Z,27.8903,-94.0367,1022.99,11111222 
TABS,ioos:station:wmo:42046:1,2009-03-04T13:30:00Z,27.8903,-94.0367,1023.4,11111222 
TABS,ioos:station:wmo:42046:1,2009-03-04T14:00:00Z,27.8903,-94.0367,1023.65,11111222 
TABS,ioos:station:wmo:42046:1,2009-03-04T14:30:00Z,27.8903,-94.0367,1023.85,11111222 
TABS,ioos:station:wmo:42046:1,2009-03-04T15:00:00Z,27.8903,-94.0367,1024.15,11111222 
TABS,ioos:station:wmo:42046:1,2009-03-04T15:30:00Z,27.8903,-94.0367,1024.39,11111222 
TABS,ioos:station:wmo:42046:1,2009-03-04T16:00:00Z,27.8903,-94.0367,1024.4,11111222 
TABS,ioos:station:wmo:42046:1,2009-03-04T16:30:00Z,27.8903,-94.0367,1024.42,11111222 
TABS,ioos:station:wmo:42046:1,2009-03-04T17:00:00Z,27.8903,-94.0367,1024.24,11111222 
TABS,ioos:station:wmo:42046:1,2009-03-04T17:30:00Z,27.8903,-94.0367,1023.91,11111222 
TABS,ioos:station:wmo:42046:1,2009-03-04T18:00:00Z,27.8903,-94.0367,1023.62,11111222 
TABS,ioos:station:wmo:42046:1,2009-03-04T18:30:00Z,27.8903,-94.0367,1023.36,11111222 
TABS,ioos:station:wmo:42046:1,2009-03-04T19:00:00Z,27.8903,-94.0367,1023.04,11111222 
TABS,ioos:station:wmo:42046:1,2009-03-04T19:30:00Z,27.8903,-94.0367,1022.58,11111222 
TABS,ioos:station:wmo:42046:1,2009-03-04T20:00:00Z,27.8903,-94.0367,1022.17,11111222 
TABS,ioos:station:wmo:42046:1,2009-03-04T20:30:00Z,27.8903,-94.0367,1021.91,11111222 
TABS,ioos:station:wmo:42046:1,2009-03-04T21:00:00Z,27.8903,-94.0367,1021.87,11111222 
TABS,ioos:station:wmo:42046:1,2009-03-04T21:30:00Z,27.8903,-94.0367,1021.85,11111222 
TABS,ioos:station:wmo:42046:1,2009-03-04T22:00:00Z,27.8903,-94.0367,1021.85,11111222 
TABS,ioos:station:wmo:42046:1,2009-03-04T22:30:00Z,27.8903,-94.0367,1021.68,11111222 
TABS,ioos:station:wmo:42046:1,2009-03-04T23:00:00Z,27.8903,-94.0367,1021.69,11111222 
TABS,ioos:station:wmo:42046:1,2009-03-04T23:30:00Z,27.8903,-94.0367,1021.71,11111222 
TABS,ioos:station:wmo:42046:1,2009-03-05T00:00:00Z,27.8903,-94.0367,1021.76,11111222 
TABS,ioos:station:wmo:42046:1,2009-03-05T00:30:00Z,27.8903,-94.0367,1021.89,11111222 
TABS,ioos:station:wmo:42046:1,2009-03-05T01:00:00Z,27.8903,-94.0367,1022.2,11111222 
TABS,ioos:station:wmo:42046:1,2009-03-05T01:30:00Z,27.8903,-94.0367,1022.29,11111222 
TABS,ioos:station:wmo:42046:1,2009-03-05T02:00:00Z,27.8903,-94.0367,1022.48,11111222 
TABS,ioos:station:wmo:42046:1,2009-03-05T02:30:00Z,27.8903,-94.0367,1022.74,11111222 
TABS,ioos:station:wmo:42046:1,2009-03-05T03:00:00Z,27.8903,-94.0367,1022.85,11111222 
TABS,ioos:station:wmo:42046:1,2009-03-05T03:30:00Z,27.8903,-94.0367,1022.83,11111222 
TABS,ioos:station:wmo:42046:1,2009-03-05T04:00:00Z,27.8903,-94.0367,1022.87,11111222 
TABS,ioos:station:wmo:42046:1,2009-03-05T04:30:00Z,27.8903,-94.0367,1022.67,11111222 
TABS,ioos:station:wmo:42046:1,2009-03-05T05:00:00Z,27.8903,-94.0367,1022.28,11111222 
TABS,ioos:station:wmo:42046:1,2009-03-05T05:30:00Z,27.8903,-94.0367,1022.06,11111222 
TABS,ioos:station:wmo:42046:1,2009-03-05T06:00:00Z,27.8903,-94.0367,1021.93,11111222 
TABS,ioos:station:wmo:42046:1,2009-03-05T06:30:00Z,27.8903,-94.0367,1021.91,11111222 
TABS,ioos:station:wmo:42046:1,2009-03-05T07:00:00Z,27.8903,-94.0367,1021.86,11111222 
TABS,ioos:station:wmo:42046:1,2009-03-05T07:30:00Z,27.8903,-94.0367,1021.77,11111222 
TABS,ioos:station:wmo:42046:1,2009-03-05T08:00:00Z,27.8903,-94.0367,1021.36,11111222 
TABS,ioos:station:wmo:42046:1,2009-03-05T08:30:00Z,27.8903,-94.0367,1021.12,11111222 
TABS,ioos:station:wmo:42046:1,2009-03-05T09:00:00Z,27.8903,-94.0367,1020.94,11111222 
TABS,ioos:station:wmo:42046:1,2009-03-05T09:30:00Z,27.8903,-94.0367,1021.0,11111222 
TABS,ioos:station:wmo:42046:1,2009-03-05T10:00:00Z,27.8903,-94.0367,1021.15,11111222 
TABS,ioos:station:wmo:42046:1,2009-03-05T10:30:00Z,27.8903,-94.0367,1021.28,11111222 
TABS,ioos:station:wmo:42046:1,2009-03-05T11:00:00Z,27.8903,-94.0367,1021.4,11111222 
TABS,ioos:station:wmo:42046:1,2009-03-05T11:30:00Z,27.8903,-94.0367,1021.62,11111222 
TABS,ioos:station:wmo:42046:1,2009-03-05T12:00:00Z,27.8903,-94.0367,1021.78,11111222 
TABS,ioos:station:wmo:42046:1,2009-03-05T12:30:00Z,27.8903,-94.0367,1021.95,11111222 
TABS,ioos:station:wmo:42046:1,2009-03-05T13:00:00Z,27.8903,-94.0367,1022.24,11111222 
TABS,ioos:station:wmo:42046:1,2009-03-05T13:30:00Z,27.8903,-94.0367,1022.71,11111222 
TABS,ioos:station:wmo:42046:1,2009-03-05T14:00:00Z,27.8903,-94.0367,1023.05,11111222 
TABS,ioos:station:wmo:42046:1,2009-03-05T14:30:00Z,27.8903,-94.0367,1023.47,11111222 
TABS,ioos:station:wmo:42046:1,2009-03-05T15:00:00Z,27.8903,-94.0367,1023.81,11111222 
TABS,ioos:station:wmo:42046:1,2009-03-05T15:30:00Z,27.8903,-94.0367,1023.99,11111222 
TABS,ioos:station:wmo:42046:1,2009-03-05T16:00:00Z,27.8903,-94.0367,1023.96,11111222 
TABS,ioos:station:wmo:42046:1,2009-03-05T16:30:00Z,27.8903,-94.0367,1024.17,11111222 
TABS,ioos:station:wmo:42046:1,2009-03-05T17:00:00Z,27.8903,-94.0367,1024.22,11111222 
TABS,ioos:station:wmo:42046:1,2009-03-05T17:30:00Z,27.8903,-94.0367,1023.85,11111222 
TABS,ioos:station:wmo:42046:1,2009-03-05T18:00:00Z,27.8903,-94.0367,1023.94,11111222 
TABS,ioos:station:wmo:42046:1,2009-03-05T18:30:00Z,27.8903,-94.0367,1023.53,11111222 
TABS,ioos:station:wmo:42046:1,2009-03-05T19:00:00Z,27.8903,-94.0367,1023.27,11111222 
TABS,ioos:station:wmo:42046:1,2009-03-05T19:30:00Z,27.8903,-94.0367,1022.93,11111222 
TABS,ioos:station:wmo:42046:1,2009-03-05T20:00:00Z,27.8903,-94.0367,1022.76,11111222 
TABS,ioos:station:wmo:42046:1,2009-03-05T20:30:00Z,27.8903,-94.0367,1022.56,11111222 
TABS,ioos:station:wmo:42046:1,2009-03-05T21:00:00Z,27.8903,-94.0367,1022.32,11111222 
TABS,ioos:station:wmo:42046:1,2009-03-05T21:30:00Z,27.8903,-94.0367,1022.28,11111222 
TABS,ioos:station:wmo:42046:1,2009-03-05T22:00:00Z,27.8903,-94.0367,1021.98,11111222 
TABS,ioos:station:wmo:42046:1,2009-03-05T22:30:00Z,27.8903,-94.0367,1021.96,11111222 
TABS,ioos:station:wmo:42046:1,2009-03-05T23:00:00Z,27.8903,-94.0367,1021.83,11111222 
TABS,ioos:station:wmo:42046:1,2009-03-05T23:30:00Z,27.8903,-94.0367,1021.85,11111222 
TABS,ioos:station:wmo:42046:1,2009-03-06T00:00:00Z,27.8903,-94.0367,1022.01,11111222 
TABS,ioos:station:wmo:42046:1,2009-03-06T00:30:00Z,27.8903,-94.0367,1022.13,11111222 
TABS,ioos:station:wmo:42046:1,2009-03-06T01:00:00Z,27.8903,-94.0367,1022.17,11111222 
TABS,ioos:station:wmo:42046:1,2009-03-06T01:30:00Z,27.8903,-94.0367,1022.36,11111222 
TABS,ioos:station:wmo:42046:1,2009-03-06T02:00:00Z,27.8903,-94.0367,1022.71,11111222 
TABS,ioos:station:wmo:42046:1,2009-03-06T02:30:00Z,27.8903,-94.0367,1023.04,11111222 
TABS,ioos:station:wmo:42046:1,2009-03-06T03:00:00Z,27.8903,-94.0367,1023.28,11111222 
TABS,ioos:station:wmo:42046:1,2009-03-06T03:30:00Z,27.8903,-94.0367,1023.57,11111222 
TABS,ioos:station:wmo:42046:1,2009-03-06T04:00:00Z,27.8903,-94.0367,1023.7,11111222 
TABS,ioos:station:wmo:42046:1,2009-03-06T04:30:00Z,27.8903,-94.0367,1023.84,11111222 
TABS,ioos:station:wmo:42046:1,2009-03-06T05:00:00Z,27.8903,-94.0367,1023.75,11111222 
TABS,ioos:station:wmo:42046:1,2009-03-06T05:30:00Z,27.8903,-94.0367,1023.68,11111222 
TABS,ioos:station:wmo:42046:1,2009-03-06T06:00:00Z,27.8903,-94.0367,1023.68,11111222 
TABS,ioos:station:wmo:42046:1,2009-03-06T06:30:00Z,27.8903,-94.0367,1023.59,11111222 
TABS,ioos:station:wmo:42046:1,2009-03-06T07:00:00Z,27.8903,-94.0367,1023.4,11111222 
TABS,ioos:station:wmo:42046:1,2009-03-06T07:30:00Z,27.8903,-94.0367,1023.17,11111222 
TABS,ioos:station:wmo:42046:1,2009-03-06T08:00:00Z,27.8903,-94.0367,1022.94,11111222 
TABS,ioos:station:wmo:42046:1,2009-03-06T08:30:00Z,27.8903,-94.0367,1022.67,11111222 
TABS,ioos:station:wmo:42046:1,2009-03-06T09:00:00Z,27.8903,-94.0367,1022.28,11111222 
TABS,ioos:station:wmo:42046:1,2009-03-06T09:30:00Z,27.8903,-94.0367,1021.9,11111222 
TABS,ioos:station:wmo:42046:1,2009-03-06T10:00:00Z,27.8903,-94.0367,1021.98,11111222 
TABS,ioos:station:wmo:42046:1,2009-03-06T10:30:00Z,27.8903,-94.0367,1022.25,11111222 
TABS,ioos:station:wmo:42046:1,2009-03-06T11:00:00Z,27.8903,-94.0367,1022.48,11111222 
TABS,ioos:station:wmo:42046:1,2009-03-06T11:30:00Z,27.8903,-94.0367,1022.57,11111222 
TABS,ioos:station:wmo:42046:1,2009-03-06T12:00:00Z,27.8903,-94.0367,1022.98,11111222 
TABS,ioos:station:wmo:42046:1,2009-03-06T12:30:00Z,27.8903,-94.0367,1023.05,11111222 
TABS,ioos:station:wmo:42046:1,2009-03-06T13:00:00Z,27.8903,-94.0367,1023.12,11111222 
TABS,ioos:station:wmo:42046:1,2009-03-06T13:30:00Z,27.8903,-94.0367,1023.46,11111222 
TABS,ioos:station:wmo:42046:1,2009-03-06T14:00:00Z,27.8903,-94.0367,1023.59,11111222 
TABS,ioos:station:wmo:42046:1,2009-03-06T14:30:00Z,27.8903,-94.0367,1023.83,11111222 
TABS,ioos:station:wmo:42046:1,2009-03-06T15:00:00Z,27.8903,-94.0367,1024.16,11111222 
TABS,ioos:station:wmo:42046:1,2009-03-06T15:30:00Z,27.8903,-94.0367,1024.08,11111222 
TABS,ioos:station:wmo:42046:1,2009-03-06T16:00:00Z,27.8903,-94.0367,1024.11,11111222 
TABS,ioos:station:wmo:42046:1,2009-03-06T16:30:00Z,27.8903,-94.0367,1024.08,11111222 
TABS,ioos:station:wmo:42046:1,2009-03-06T17:00:00Z,27.8903,-94.0367,1024.14,11111222 
TABS,ioos:station:wmo:42046:1,2009-03-06T17:30:00Z,27.8903,-94.0367,1023.81,11111222 
TABS,ioos:station:wmo:42046:1,2009-03-06T18:00:00Z,27.8903,-94.0367,1023.49,11111222 
TABS,ioos:station:wmo:42046:1,2009-03-06T18:30:00Z,27.8903,-94.0367,1023.1,11111222 